Regional Weather Roundup
Issued by NWS

Home | Current Version | Previous Version | Graphics & Text | Print | Product List | Glossary On
Versions: 1 2 3 4 5 6 7 8 9 10 11 12 13 14 15 16 17 18 19 20 21 22 23 24 25 26 27 28 29 30 31 32 33 34 35 36 37 38 39 40 41 42 43 44 45 46 47 48 49 50
000
ASUS43 KMPX 210910
RWRMN
WEATHER ROUNDUP FOR MINNESOTA
NATIONAL WEATHER SERVICE TWIN CITIES/CHANHASSEN MN
400 AM CDT THU AUG 21 2014


NOTE: "FAIR" INDICATES FEW OR NO CLOUDS BELOW 12,000 FEET WITH NO
SIGNIFICANT WEATHER AND/OR OBSTRUCTIONS TO VISIBILITY. N/A MEANS
CURRENT SKY AND/OR WEATHER CONDITIONS ARE NOT AVAILABLE.

MNZ060>063-068>070-211000-
   Twin Cities Metro

CITY           SKY/WX    TMP DP  RH WIND       PRES   REMARKS
TWIN CITIES    CLOUDY    71  67  87 SE13      29.80F
ST PAUL        CLOUDY    70  65  84 SE9       29.81S
CRYSTAL        LGT RAIN  72  65  78 E8        29.79S
BLAINE         LGT RAIN  72  66  83 SE8       29.81F
LAKEVILLE      CLOUDY    68  66  94 SE6       29.80F
EDEN PRAIRIE   LGT RAIN  71  68  90 E9        29.78F
SOUTH ST PAUL  CLOUDY    71  65  83 SE6       29.81S
LAKE ELMO      CLOUDY    70  64  83 E5        29.84R
$$
MNZ001>005-007-008-013>017-022>024-027-028-211000-
   Northwest Minnesota

CITY           SKY/WX    TMP DP  RH WIND       PRES   REMARKS
BEMIDJI        MOCLDY    63  61  94 SE8       29.83R
HALLOCK        MOCLDY    66  64  94 E6        29.76R
ROSEAU         PTCLDY    64  61  88 SE9       29.80R
WARROAD        PTCLDY    64  61  88 SE7       29.81S
THIEF RVR FALL MOCLDY    64  63  94 SE9       29.79R
CROOKSTON      CLOUDY    70  64  83 SE10      29.76R
FOSSTON        CLOUDY    64  61  88 SE12G17   29.79S
DETROIT LAKES  HVY RAIN  66  64  94 S10       29.82R
MOORHEAD       LGT RAIN  70  70 100 SE13G22   29.69F
PARK RAPIDS    CLOUDY    66  62  87 SE9       29.81R
MAHNOMEN       FAIR      67  63  87 SE12      29.77S
$$
MNZ006-009>011-018-025>026-211000-
   North Central Minnesota

CITY           SKY/WX    TMP DP  RH WIND       PRES   REMARKS
BAUDETTE       PTCLDY    61  59  93 SE7       29.84R
FLAG ISLAND    CLEAR     66  63  88 SE3       29.81S
INTL FALLS     CLEAR     56  55  97 SE6       29.88R
WASKISH        MOCLDY    61  61 100 CALM      29.83F
BIG FORK       MOCLDY    61  57  88 E5        29.86F
LONGVILLE      CLOUDY    63  61  94 E3        29.83F
GRAND RAPIDS   CLOUDY    59  55  88 E6        29.86S
CRANE LAKE     CLEAR     50  48  93 CALM      29.92R
ORR            CLOUDY    57  55  94 SE5       29.88R FOG
COOK           CLOUDY    59  57  94 SE5       29.91R
WALKER         CLOUDY    64  60  88 SE5       29.82R
$$
MNZ012-019>021-037-211000-
   Northeast Minnesota

CITY           SKY/WX    TMP DP  RH WIND       PRES   REMARKS
DULUTH         FOG       61  59  93 E12       29.89F VSB 1
ELY            CLOUDY    59  57  94 S3        29.93S
HIBBING        CLOUDY    61  59  93 E9        29.88F
EVELETH        CLOUDY    59  59 100 CALM      29.91F
DULUTH HARBOR  FOG       61  61 100 NE18      29.89F VSB 3/4
TWO HARBORS    CLOUDY    59  54  82 E8        29.90S
SILVER BAY     CLOUDY    59  59 100 NE5       29.92S FOG
GRAND MARAIS     N/A     60  59  96 NE6       29.94F
G MARAIS ARPRT FOG       57  54  88 CALM      29.97S VSB 1/2
$$
MNZ029>031-032-039>041-046>048-054>057-064-211000-
   West Central Minnesota

CITY           SKY/WX    TMP DP  RH WIND       PRES   REMARKS
FERGUS FALLS   RAIN      70  66  88 SE14      29.76R
WHEATON        TSTM      66  66 100 E17       29.73S
MORRIS         TSTM      70  68  94 SE18G24   29.73R
ALEXANDRIA     LGT RAIN  68  66  93 SE13      29.79R
ELBOW LAKE     CLOUDY    68  67  94 E15       29.74R
WADENA         TSTM      64  63  94 E3        29.80R
GLENWOOD       TSTM      68  66  94 S15       29.80R
APPLETON       TSTM      72  68  88 E9        29.72F
BENSON         TSTM      70  66  88 SE7       29.78S
ORTONVILLE     TSTM      70  66  88 E13       29.70F
MADISON        TSTM      73  70  88 W12       29.79R
WILLMAR        TSTM      70  68  94 E5        29.77R
$$
MNZ033>034-036-042>043-049>051-058-059-211000-
   Central Minnesota

CITY           SKY/WX    TMP DP  RH WIND       PRES   REMARKS
ST CLOUD       LGT RAIN  68  64  87 E8        29.79S
SAUK CENTRE    TSTM      66  65  97 E9        29.82R
PAYNESVILLE    TSTM      66  66  98 SE8       29.79R
AITKIN         CLOUDY    66  61  82 E7        29.82F
PINE RIVER     CLOUDY    64  63  94 E6        29.86S
BRAINERD       LGT RAIN  65  63  93 VRB3      29.80F
STAPLES        RAIN      64  63  94 CALM      29.80S
LONG PRAIRIE   TSTM      64  63  94 E7G16     29.80S
LITTLE FALLS   RAIN      64  61  88 E8        29.78F
LITCHFIELD     TSTM      72  70  94 SE9       29.75F
BUFFALO        LGT RAIN  69  65  87 E6        29.79F
MAPLE LAKE     RAIN      71  68  92 E6        29.78F
$$
MNZ037-044-045-052-053-211000-
   East Central Minnesota

CITY           SKY/WX    TMP DP  RH WIND       PRES   REMARKS
PRINCETON      LGT RAIN  66  64  94 E7        29.81S
MORA           CLOUDY    63  59  88 E6        29.85S
CAMBRIDGE      RAIN      70  59  68 E5        29.80F
RUSH CITY      CLOUDY    66  61  86 E5        29.84S
MOOSE LAKE     MOCLDY    59  59 100 E5        29.85F
HINCKLEY       CLOUDY    64  61  88 E7        29.85F
CLOQUET        CLOUDY    61  59  94 E8        29.88F FOG
MCGREGOR       MOCLDY    61  59  94 E6        29.86S
$$
MNZ071>073-080-081-089-090-097-098-211000-
   Southwest Minnesota

CITY           SKY/WX    TMP DP  RH WIND       PRES   REMARKS
MONTEVIDEO     CLOUDY    72  70  94 NE17      29.75R
GRANITE FALLS  CLOUDY    70  69  96 E10G17    29.71F
CANBY          MOCLDY    69  68  95 NW9G31    29.75R
MARSHALL       MOCLDY    70  64  83 SE15      29.69R
REDWOOD FALLS  LGT RAIN  71  69  93 SE14      29.70F
OLIVIA         CLOUDY    70  66  88 E7        29.74S
PIPESTONE      PTCLDY    73  70  88 SE7       29.71F
WINDOM         TSTM      70  68  94 CALM      29.78R
WORTHINGTON    CLOUDY    73  14  10 NE5       29.75R THUNDER
JACKSON        CLOUDY    73  70  88 CALM      29.73S
TRACY          MOCLDY    71  69  94 SE13G18   29.72S
SLAYTON        HVY RAIN  70  69  96 SE3G16    29.72F
$$
MNZ065>067-074>077-082>085-091>093-211000-
   South Central Minnesota

CITY           SKY/WX    TMP DP  RH WIND       PRES   REMARKS
MANKATO        CLOUDY    72  64  78 SE15      29.76F
NEW ULM        TSTM      70  70 100 SW10      29.79R
ST JAMES       TSTM      72  70  94 E6        29.76S
FAIRMONT       CLOUDY    72  66  83 MISG      29.72F
GLENCOE        CLOUDY    72  67  84 E12       29.74F
FARIBAULT      TSTM      73  64  73 SE8       29.79F
OWATONNA       CLOUDY    72  66  83 SE10G16   29.79F
WASECA         TSTM      70  64  83 SE10      29.79F
ALBERT LEA     LGT RAIN  70  68  94 SE12      29.79F
$$
MNZ078>079-086>088-094>096-211000-
   Southeast Minnesota

CITY           SKY/WX    TMP DP  RH WIND       PRES   REMARKS
ROCHESTER      CLOUDY    69  66  90 SE9       29.85F
RED WING       CLOUDY    72  66  83 SE8       29.82S
STANTON        CLOUDY    73  66  80 SE8       29.80F
DODGE CENTER   LGT RAIN  70  66  88 SE8       29.83F
WINONA         CLOUDY    70  66  88 SE5       29.85F
AUSTIN         CLOUDY    70  68  94 SE7       29.84S
PRESTON        CLOUDY    69  69  99 SE7       29.87F FOG
$$
ABBREVIATIONS USED IN REMARKS
   TC - TEMPERATURES IN CELSIUS
  WCI - WIND CHILL INDEX
   HX - HEAT INDEX
  VSB - VISIBILITY
$$



USA.gov is the U.S. government's official web portal to all federal, state and local government web resources and services.